Dillon, MT

7:41 AM MDT on September 20, 2017 (GMT -0600)
Dillon

Weather History for KDLN - August, 2014

Change the Weather History Date:

Tuesday, August 19, 2014

  Actual Average Record
Temperature  
Mean Temperature 68 °F 64 °F  
Max Temperature 85 °F 81 °F 96 °F (1942)
Min Temperature 50 °F 47 °F 36 °F (1964)
Degree Days  
Heating Degree Days 0    
Month to date heating degree days 4  
Since 1 June heating degree days 270  
Since 1 July heating degree days 20  
Cooling Degree Days 3    
Month to date cooling degree days 48  
Year to date cooling degree days 160  
Since 1 June cooling degree days 160  
Growing Degree Days 16 (Base 50)    
Moisture  
Dew Point 44 °F    
Average Humidity 46    
Maximum Humidity 72    
Minimum Humidity 20    
Precipitation  
Precipitation 0.17 in 0.03 in 0.78 in (1965)
Month to date precipitation 1.39 0.62  
Year to date precipitation 7.48 7.87  
Snow  
Snow 0.00 in - - ()
Snow Depth 0.00 in    
Sea Level Pressure  
Sea Level Pressure 29.77 in    
Wind  
Wind Speed 8 mph (SSW)    
Max Wind Speed 26 mph    
Max Gust Speed 36 mph    
Visibility 9 miles    
Events Rain    
T = Trace of Precipitation, MM = Missing Value Source: NWS Daily Summary

Daily Weather History Graph

Daily Weather History Graph

Search for Another Location

Airport or City:

Trip Planner

Search our weather history database for the weather conditions in past years. The results will help you decide how hot, cold, wet, or windy it might be!

Date:

Astronomy

Aug. 19, 2014 Rise Set
Actual Time 6:36 AM MDT 8:30 PM MDT
Civil Twilight 6:04 AM MDT 9:01 PM MDT
Nautical Twilight 5:25 AM MDT 9:40 PM MDT
Astronomical Twilight 4:43 AM MDT 10:22 PM MDT
Moon 1:26 AM MDT (8/19) 4:35 PM MDT (8/19)
Length of Visible Light 14h 57m
Length of Day
13h 54m
Waning Crescent, 28% of the Moon is Illuminated
Aug 19
Waning Crescent
Aug 25
New
Sep 2
First Quarter
Sep 8
Full
Sep 15
Last Quarter

Hourly Weather History & Observations

Time (MDT) Temp. Dew Point Humidity Pressure Visibility Wind Dir Wind Speed Gust Speed Precip Events Conditions
1:53 AM 55.9 °F 41.0 °F 57% 29.80 in 10.0 mi SSW 10.4 mph - N/A   Clear
3:53 AM 52.0 °F 41.0 °F 66% 29.80 in 10.0 mi South 10.4 mph - N/A   Clear
4:53 AM 53.1 °F 41.0 °F 64% 29.80 in 10.0 mi WSW 9.2 mph - N/A   Clear
5:53 AM 54.0 °F 39.9 °F 59% 29.79 in 10.0 mi SSW 9.2 mph - N/A   Clear
6:53 AM 50.0 °F 39.9 °F 68% 29.80 in 10.0 mi SSW 11.5 mph - N/A   Clear
7:53 AM 55.0 °F 42.1 °F 62% 29.79 in 10.0 mi SSW 5.8 mph - N/A   Clear
8:53 AM 60.1 °F 44.1 °F 55% 29.79 in 10.0 mi SW 10.4 mph - N/A   Clear
9:53 AM 66.0 °F 44.1 °F 45% 29.79 in 10.0 mi SW 6.9 mph - N/A   Clear
10:53 AM 71.1 °F 44.1 °F 38% 29.77 in 10.0 mi SW 6.9 mph - N/A   Clear
11:53 AM 75.9 °F 42.1 °F 30% 29.73 in 10.0 mi SW 4.6 mph - N/A   Clear
12:53 PM 82.0 °F 37.0 °F 20% 29.70 in 10.0 mi SSW 6.9 mph - N/A   Clear
1:53 PM 82.9 °F 37.0 °F 19% 29.67 in 10.0 mi SW 5.8 mph - 0.00 in   Clear
2:53 PM 81.0 °F 41.0 °F 24% 29.66 in 10.0 mi NNW 5.8 mph - N/A   Partly Cloudy
3:53 PM 80.1 °F 42.1 °F 26% 29.67 in 10.0 mi NNE 15.0 mph - N/A   Mostly Cloudy
4:40 PM 64.0 °F 46.0 °F 52% 29.89 in 1.8 mi North 10.4 mph 26.5 mph 0.12 in Rain Heavy Rain
4:48 PM 62.6 °F 46.4 °F 55% 29.90 in 4.0 mi Variable 5.8 mph - 0.15 in Rain Light Rain
4:53 PM 63.0 °F 50.0 °F 63% 29.78 in 9.0 mi SE 12.7 mph - 0.15 in Rain Light Rain
5:53 PM 62.1 °F 51.1 °F 67% 29.78 in 10.0 mi East 20.7 mph 28.8 mph 0.02 in Rain Light Rain
6:53 PM 64.9 °F 48.9 °F 56% 29.77 in 10.0 mi SE 10.4 mph - 0.00 in   Mostly Cloudy
7:53 PM 61.0 °F 52.0 °F 72% 29.76 in 10.0 mi Calm Calm - N/A   Partly Cloudy
8:53 PM 64.0 °F 48.0 °F 56% 29.77 in 10.0 mi Calm Calm - N/A   Mostly Cloudy
9:53 PM 61.0 °F 48.9 °F 64% 29.76 in 10.0 mi SW 6.9 mph - N/A   Overcast
10:53 PM 60.1 °F 48.9 °F 67% 29.76 in 10.0 mi South 4.6 mph - N/A   Clear
11:53 PM 57.0 °F 48.9 °F 74% 29.74 in 10.0 mi South 4.6 mph - N/A   Clear